FENGYUN 1C DEB, 32409

Orbit data source: Space-Track

FENGYUN 1C DEB, 32409 is space debris in SSO originally from a launch on Mon, 10 May 1999 UTC launched from the Taiyaun Space Center, China (TSC). Fengyun 1C debris stems from the Chinese weather satellite Fengyun-1C, which was intentionally destroyed by a Chinese anti-satellite missile in 2007. This event dramatically increased the amount of space debris, with thousands of trackable fragments posing hazards to satellites and human spaceflight. The Fengyun 1C debris cloud has become a focal point in discussions about space sustainability and the need for international regulations to prevent the creation of new debris.

Loading next visibility...
Identifier
32409, 1999-025CZV
Orbit
SSO
Country
Flag of CNCN / PRC
Related business
Manufacturer
Unknown
Mission
Spacecraft
Bus & Motor
Unknown
Mass
Unknown
Launch date (UTC)
1999-05-10 (27 years ago)
Launch vehicle
Unknown
Launch site
Taiyaun Space Center, China (TSC)
Object type
Payload
Rocket body
Debris
Shape & HBR
Unknown shape, 0.1 m
Radar Cross Section
Small (<0.1 m²)

Expand to show TLE details & history
Last TLE update: 3 days ago

TLE from 3 days ago
0 FENGYUN 1C DEB
1 32409U 99025CZV 26034.26584681  .00018583  00000-0  25277-2 0  9998
2 32409  99.5695 212.8296 0038404 350.4985 186.9148 14.78325255596140
Epoch: 2026-02-03T06:22Z
TLE epoch observation values (Epoch: 2026-02-03T06:22:49.164Z)
Latitude
2.49985°
Longitude
164.09494°
Altitude
664.033 km
Speed
7.511 km/s
True Right ascension
02h 12m 59s
True Declination
2° 29' 05"
Sunlit
Object was in daylight at epoch
Visualization orbit readout
Latitude
Unknown
Longitude
Unknown
Altitude
Unknown
Speed
Unknown
Apparent Right ascension
Unknown
Apparent Declination
Unknown
Sunlit
N/A
Visualization observer readout
Local Sidereal Time
18:53:06
Azimuth
Unknown
Elevation
Unknown
Doppler factor
Unknown
Orbital elements
Apogee altitude
658.662 km
Perigee altitude
604.82 km
Semi-major axis
7,009.878 km
Eccentricity
0.00384
Inclination
99.5695°
RAAN
212.8296°
Arg. of periapsis
350.4985°
True anomaly
186.86207°
Mean anomaly
186.9148°
Eccentric anomaly
186.88841°
Mean motion
3.69809 °/min
Orbital period
97.35 mins
BSTAR
0.0025277
Loading maneuver chart data...
Computing Atmospheric mass density...

Documentation

Showing up to 5 results
|